Weather in Nizhnyaya Omra

Russia / Komi Republic     62°45′17″N   55°49′45″E
В апреле 2022 года жителям России запретили посещать сайт meteo.paraplan.net по решению Генеральной прокуратуры. Аудитория сайта уменьшилась в 10 раз. Владельцы сайта не видят смысла в поддержке погодного сервера в таких условиях. Сайт будет закрыт в октябре.
temp.,
°C
wind,
m/s
gust,
m/s
humid.,
%
clouds,
%
prec.,
mm/h
press.,
hPa
HPBL,
m
4 october, tue
tue400:00+5ne2495100 0.0 1021238
03:00+5ene2597100 2.6 1022277
06:00+5e2695100 0.9 1023270
09:00+5ese2694100 0.9 1023230
12:00+6se2699100 2.2 1023225
15:00+9ssw3790100 2.2 1023342
18:00+9s3993100 0.0 1024321
21:00+8s31089100 0.0 1024403
5 october, wed
wed500:00+8ssw3986100 0.0 1024355
03:00+7ssw2892100 1.1 1024427
06:00+7s2695100 0.1 1023256
09:00+9s378383 0.1 1023422
12:00+11s3671100 0.0 1022663
15:00+8s2380100 0.0 102290
18:00+6s3786100 0.2 1023322
21:00+4sse399099 0.2 1022344
6 october, thu
thu600:00+5sse3894100 0.0 1021445
03:00+5se3794100 0.0 1020365
06:00+5se3991100 0.0 1019368
09:00+6sse3983100 0.0 1017396
12:00+6sse3776100 0.0 1016539
15:00+5sse3694100 0.8 1015738
18:00+4sse2497100 0.6 1015721
21:00+4sse1398100 0.6 1013613
7 october, fri
fri700:00+4sse1398100 0.1 1012518
03:00+4s2497100 0.1 1010270
06:00+4s2698100 0.0 1008349
09:00+5s3996100 0.0 1007389
12:00+7ssw4984100 0.0 1005689
15:00+8ssw4984100 0.2 1003968
18:00+6sw5992100 1.6 10021064
21:00+6sw41095100 2.3 1001642
8 october, sat
sat800:00+7w4990100 0.3 1001947
03:00+6wnw51192100 0.6 1003982
06:00+6wnw41090100 0.3 1006699
09:00+6wnw4990100 0.4 1009718
12:00+8wnw4873100 0.1 10101093
15:00+7w388525 0.1 1011716
18:00+5wsw310949 0.0 1013382
21:00+4sw399124 0.0 1013310